Regional Weather Roundup
Issued by NWS Portland, ME

Home | Current Version | Previous Version | Text Only | Print | Product List | Glossary On
Versions: 1 2 3 4 5 6 7 8 9 10 11 12 13 14 15 16 17 18 19 20 21 22 23 24 25 26 27 28 29 30 31 32 33 34 35 36 37 38 39 40 41 42 43 44 45 46 47 48 49 50
000
ASUS41 KGYX 020310
RWRGYX
WEATHER ROUNDUP FOR MAINE AND NEW HAMPSHIRE
NATIONAL WEATHER SERVICE GRAY ME
1100 PM EDT SUN MAY 01 2016

MEZ002-005-006-010-012-015-018-020-021-024-026-027-029-020400-
MAINE

CITY           SKY/WX    TMP DP  RH WIND       PRES   REMARKS
PORTLAND       CLOUDY    45  38  76 E3        30.17F
SANFORD        CLOUDY    43  36  75 CALM      30.18R
BAR HARBOR     CLOUDY    45  35  68 CALM      30.20F
WISCASSET      CLOUDY    44  37  76 CALM      30.20F
FRYEBURG       CLOUDY    43  39  86 CALM      30.16F
LEWISTONAUBURN CLOUDY    43  37  81 SE5       30.17S
AUGUSTA        CLOUDY    44  33  65 SE3       30.18F
WATERVILLE     CLOUDY    43  32  65 CALM      30.15F
BANGOR         CLOUDY    47  35  63 CALM      30.18F
GREENVILLE       N/A     38  36  92 CALM      30.13F
MILLINOCKET    CLOUDY    46  31  55 VRB3      30.18F
HOULTON        CLOUDY    49  29  46 VRB5      30.14F
PRESQUE ISLE   CLOUDY    52  33  48 CALM      30.13S
FRENCHVILLE    CLOUDY    49  24  37 NE8       30.11S
CARIBOU        CLOUDY    54  32  43 S5        30.11S
$$

NHZ002-005-008-009-011-012-014-020400-
NEW HAMPSHIRE

CITY           SKY/WX    TMP DP  RH WIND       PRES   REMARKS
PORTSMOUTH     CLOUDY    45  40  84 S2        30.15F
ROCHESTER      CLOUDY    44  37  76 CALM      30.16S
NASHUA         CLOUDY    44  35  70 VRB5      30.15F
MANCHESTER     CLOUDY    45  35  68 SE5       30.14S
CONCORD        CLOUDY    43  36  76 E5        30.15S
LACONIA        CLOUDY    43  30  61 E6        30.15F
PLYMOUTH       LGT RAIN  42  39  89 SE3       30.14F
BERLIN         LGT RAIN  44  39  82 SE8       30.12R
WHITEFIELD     LGT RAIN  44  38  79 S7        30.11R
JAFFREY        CLOUDY    42  32  67 VRB5      30.13S
KEENE          CLOUDY    45  32  61 S5        30.13F
LEBANON        CLOUDY    45  37  73 SE3       30.11F
MT WASHINGTON  LGTSLEET  23  23 100 SE29        N/A  VSB 0   WCI   6
$$

VTZ005-007-008-020400-
VERMONT

CITY           SKY/WX    TMP DP  RH WIND       PRES   REMARKS
ST JOHNSBURY     N/A     44  40  85 MISG      30.10S
MONTPELIER     LGT RAIN  41  38  89 S7        30.12F
BURLINGTON     LGT RAIN  45  43  93 CALM      30.07F FOG
$$

MAZ007-012-024-CTZ003-RIZ002-NYZ038-NYZ072-020400-
SOUTHERN NEW ENGLAND AND NY

CITY           SKY/WX    TMP DP  RH WIND       PRES   REMARKS
BOSTON         DRIZZLE   43  39  87 SE5       30.16F
WORCESTER      CLOUDY    37  37 100 E3        30.11F FOG
NANTUCKET      LGT RAIN  48  45  89 E12       30.13F FOG
PROVIDENCE     DRIZZLE   42  40  92 NE7       30.13F FOG
HARTFORD       DRIZZLE   42  40  92 N3        30.12F FOG
ALBANY         CLOUDY    45  38  76 S9        30.08F
NEW YORK CITY  CLOUDY    46  43  89 NE8       30.09F
$$

ANZ081-ANZ082-ANZ150-NHZ014-MEZ023>029-020400-
COASTAL MARINE OBSERVATIONS

STATION/POSITION TIME  TEMP    WIND        PRES    WAVE
                       AIR SEA DIR/SP/G            HT/PER
                 (UTC) (F)     (DEG/KT/KT) (MB)    (FT/S)
MOUNT DESERT ROC 0300   44     150/  9/ 10 1022.9F
MATINICUS ROCK   0200   44      90/  8/  8 1022.7F
ISLE OF SHOALS   0200   45     160/ 10/ 11 1021.3S
CASHES LEDGE BUO 0250   45 45  120/  6/  8 1022.2F   5/10
GEORGES BANK BUO 0250   50 47              1021.7F   6/10
$$

.............KEY..............
   WCI - WIND CHILL
   TC  - TEMPERATURE IN CELSIUS
   VSB - VISIBILITY IN MILES
   HX  - HEAT INDEX
   FAIR- INDICATES FEW OR NO CLOUDS BELOW 12,000 FT, WITH NO
         SIGNIFICANT WEATHER AND/OR OBSTRUCTIONS TO VISIBILITY.






USA.gov is the U.S. government's official web portal to all federal, state and local government web resources and services.